TimeEET,TemperatureF,Dew PointF,Humidity,Sea Level PressureIn,VisibilityMPH,Wind Direction,Wind SpeedMPH,Gust SpeedMPH,PrecipitationIn,Events,Conditions,WindDirDegrees,DateUTC
12:20 AM,48.2,48.2,100,29.62,3.7,North,11.5,-,N/A,Rain,Light Rain Showers,350,2013-03-26 22:20:00
12:50 AM,48.2,48.2,100,29.62,5.0,NNW,13.8,-,N/A,Rain,Light Rain Showers,340,2013-03-26 22:50:00
1:20 AM,48.2,46.4,93,29.62,6.2,NNW,16.1,-,N/A,Rain,Light Rain Showers,340,2013-03-26 23:20:00
1:50 AM,46.4,46.4,100,29.62,6.2,North,15.0,-,N/A,Rain,Light Rain Showers,350,2013-03-26 23:50:00
2:00 AM,47,47,98,29.64,6,North,15.0,,,Rain,Light Rain Showers,350,2013-03-27 00:00:00
2:20 AM,46.4,46.4,100,29.62,6.2,NNW,16.1,-,N/A,Rain,Light Rain Showers,340,2013-03-27 00:20:00
2:50 AM,46.4,44.6,93,29.65,6.2,NNW,15.0,-,N/A,Rain,Light Rain Showers,340,2013-03-27 00:50:00
3:20 AM,46.4,44.6,93,29.65,6.2,NNW,18.4,-,N/A,Rain,Light Rain Showers,340,2013-03-27 01:20:00
3:50 AM,46.4,44.6,93,29.65,6.2,North,18.4,-,N/A,Rain,Light Rain Showers,350,2013-03-27 01:50:00
4:20 AM,46.4,44.6,93,29.65,6.2,NNW,18.4,-,N/A,,Mostly Cloudy,340,2013-03-27 02:20:00
4:50 AM,44.6,44.6,100,29.65,5.0,NNW,17.3,-,N/A,Rain,Light Rain Showers,340,2013-03-27 02:50:00
5:20 AM,44.6,44.6,100,29.68,6.2,NNW,17.3,-,N/A,Rain,Light Rain Showers,340,2013-03-27 03:20:00
5:50 AM,44.6,42.8,93,29.68,6.2,NNW,19.6,-,N/A,Rain,Light Rain Showers,340,2013-03-27 03:50:00
6:20 AM,44.6,44.6,100,29.71,6.2,NNW,17.3,-,N/A,Rain,Light Rain Showers,340,2013-03-27 04:20:00
6:50 AM,44.6,42.8,93,29.71,6.2,NNW,19.6,-,N/A,Rain,Light Rain Showers,340,2013-03-27 04:50:00
7:20 AM,44.6,42.8,93,29.71,6.2,NNW,18.4,-,N/A,,Mostly Cloudy,340,2013-03-27 05:20:00
7:50 AM,44.6,41.0,87,29.74,6.2,NNW,19.6,-,N/A,,Mostly Cloudy,340,2013-03-27 05:50:00
8:00 AM,45,42,84,29.76,6,NNW,19.6,,,Rain,Light Rain Showers,340,2013-03-27 06:00:00
8:20 AM,44.6,41.0,87,29.74,5.0,NNW,20.7,-,N/A,,Mostly Cloudy,340,2013-03-27 06:20:00
8:50 AM,44.6,42.8,93,29.74,6.2,North,18.4,-,N/A,,Mostly Cloudy,350,2013-03-27 06:50:00
9:20 AM,44.6,41.0,87,29.77,6.2,North,18.4,-,N/A,,Mostly Cloudy,350,2013-03-27 07:20:00
9:50 AM,44.6,41.0,87,29.80,6.2,NNW,17.3,-,N/A,,Mostly Cloudy,340,2013-03-27 07:50:00
10:20 AM,46.4,41.0,81,29.80,6.2,North,18.4,-,N/A,,Mostly Cloudy,350,2013-03-27 08:20:00
10:50 AM,44.6,39.2,81,29.80,6.2,North,20.7,-,N/A,,Mostly Cloudy,350,2013-03-27 08:50:00
11:20 AM,46.4,39.2,76,29.80,6.2,North,18.4,-,N/A,,Mostly Cloudy,360,2013-03-27 09:20:00
11:50 AM,46.4,39.2,76,29.83,6.2,North,16.1,-,N/A,,Mostly Cloudy,360,2013-03-27 09:50:00
12:20 PM,46.4,39.2,76,29.83,6.2,North,17.3,-,N/A,,Mostly Cloudy,360,2013-03-27 10:20:00
12:50 PM,46.4,39.2,76,29.83,6.2,North,17.3,-,N/A,,Mostly Cloudy,360,2013-03-27 10:50:00
1:20 PM,46.4,39.2,76,29.83,6.2,North,16.1,-,N/A,,Mostly Cloudy,360,2013-03-27 11:20:00
1:50 PM,46.4,39.2,76,29.83,6.2,North,15.0,-,N/A,,Mostly Cloudy,360,2013-03-27 11:50:00
2:00 PM,46,40,72,29.84,6,North,15.0,,,,Mostly Cloudy,0,2013-03-27 12:00:00
2:20 PM,46.4,41.0,81,29.80,6.2,North,15.0,-,N/A,,Mostly Cloudy,360,2013-03-27 12:20:00
2:50 PM,46.4,39.2,76,29.80,6.2,North,15.0,-,N/A,,Mostly Cloudy,10,2013-03-27 12:50:00
3:20 PM,46.4,39.2,76,29.80,6.2,North,13.8,-,N/A,,Mostly Cloudy,10,2013-03-27 13:20:00
3:50 PM,46.4,39.2,76,29.83,6.2,North,13.8,-,N/A,,Mostly Cloudy,10,2013-03-27 13:50:00
4:20 PM,46.4,41.0,81,29.83,6.2,NNE,12.7,-,N/A,,Mostly Cloudy,20,2013-03-27 14:20:00
4:50 PM,46.4,41.0,81,29.83,6.2,NNE,12.7,-,N/A,,Mostly Cloudy,30,2013-03-27 14:50:00
5:20 PM,46.4,41.0,81,29.83,6.2,NNE,12.7,-,N/A,,Mostly Cloudy,30,2013-03-27 15:20:00
5:34 PM,46.4,41.0,81,29.83,-9999.0,NNE,12.7,-,N/A,,Mostly Cloudy,30,2013-03-27 15:34:00
5:41 PM,44.6,41.0,87,29.86,-9999.0,North,12.7,-,N/A,Rain,Light Rain Showers,10,2013-03-27 15:41:00
5:50 PM,46.4,41.0,81,29.86,1.7,NNE,11.5,-,N/A,Rain,Light Rain Showers,20,2013-03-27 15:50:00
6:20 PM,46.4,42.8,87,29.83,1.7,NNE,15.0,-,N/A,Rain,Light Rain Showers,30,2013-03-27 16:20:00
6:42 PM,46.4,41.0,81,29.86,2.5,NNE,11.5,-,N/A,Rain,Light Rain Showers,30,2013-03-27 16:42:00
6:50 PM,46.4,41.0,81,29.86,3.7,NNE,10.4,-,N/A,Rain,Light Rain Showers,30,2013-03-27 16:50:00
7:20 PM,46.4,41.0,81,29.86,3.7,NNE,10.4,-,N/A,Rain,Light Rain Showers,30,2013-03-27 17:20:00
7:50 PM,46.4,42.8,87,29.86,4.3,NNE,11.5,-,N/A,Rain,Light Rain Showers,30,2013-03-27 17:50:00
8:00 PM,46,40,74,29.88,4,NNE,11.5,,,Rain,Light Rain Showers,30,2013-03-27 18:00:00
8:20 PM,48.2,41.0,76,29.86,4.3,NE,10.4,-,N/A,,Mostly Cloudy,40,2013-03-27 18:20:00
8:50 PM,48.2,42.8,82,29.89,4.3,NE,9.2,-,N/A,,Mostly Cloudy,40,2013-03-27 18:50:00
9:20 PM,46.4,41.0,81,29.89,4.3,NNE,9.2,-,N/A,Rain,Light Rain Showers,30,2013-03-27 19:20:00
9:50 PM,46.4,42.8,87,29.89,4.3,ENE,9.2,-,N/A,Rain,Rain Showers,60,2013-03-27 19:50:00
10:20 PM,46.4,44.6,93,29.89,3.7,NE,6.9,-,N/A,Rain,Rain Showers,40,2013-03-27 20:20:00
10:50 PM,46.4,44.6,93,29.89,3.7,NNE,5.8,-,N/A,Rain,Rain Showers,20,2013-03-27 20:50:00
11:20 PM,46.4,44.6,93,29.89,4.3,North,9.2,-,N/A,Rain,Light Rain Showers,350,2013-03-27 21:20:00
11:50 PM,46.4,44.6,93,29.89,4.3,North,10.4,-,N/A,Rain,Light Rain Showers,350,2013-03-27 21:50:00